Regional Weather Roundup
Issued by NWS Goodland, KS

Home | Current Version | Previous Version | Text Only | Print | Product List | Glossary Off
Versions: 1 2 3 4 5 6 7 8 9 10 11 12 13 14 15 16 17 18 19 20 21 22 23 24 25 26 27 28 29 30 31 32 33 34 35 36 37 38 39 40 41 42 43 44 45 46 47 48 49 50

000
ASUS43 KGLD 181608
RWRGLD

GOODLAND FORECAST AREA HOURLY WEATHER ROUNDUP
NATIONAL WEATHER SERVICE GOODLAND KS
900 AM MST SAT NOV 18 2017

...OFFICIAL OBSERVATIONS...

CITY           SKY/WX    TMP DP  RH WIND       PRES   REMARKS
GOODLAND KS    SUNNY     39  23  52 NW24G36   30.20R
HILL CITY KS   SUNNY     44  34  67 NW21G35   30.15R
IMPERIAL NEB   SUNNY     39  23  52 NW24G30   30.20R
MCCOOK NEB     SUNNY     42  31  64 NW22G31   30.16R
AKRON CO       SUNNY     35  17  47 NW31      30.23R
BURLINGTON CO  SUNNY     38  21  50 N24G35    30.23R
LIMON CO       SUNNY     31  18  58 N17       30.24R WCI  19
$$

...UNOFFICIAL OBSERVATIONS...

CITY           SKY/WX    TMP DP  RH WIND       PRES   REMARKS
COLBY KS       SUNNY     39  32  75 NW20G31   30.20R
LENORA KS        N/A     42  32  68 NW16        N/A
NORTON KS      SUNNY     43  30  61 NW24      30.13
SHARON SPRINGS   N/A     40  25  55 NW23G32     N/A
TRENTON NEB      N/A     39  32  76 NW13        N/A
KIT CARSON CO    N/A     37  22  54 MISG        N/A
YUMA CO        FAIR      34  21  60 NW18      30.24R
$$




USA.gov is the U.S. government's official web portal to all federal, state and local government web resources and services.